Odell, IL

3:29 PM CST on January 18, 2017 (GMT -0600)
Pontiac Municipal

Weather History for KPNT - February, 2013

Change the Weather History Date:

Wednesday, February 27, 2013

  Actual Average Record
Temperature  
Mean Temperature 32 °F -  
Max Temperature 33 °F 42 °F 70 °F (1976)
Min Temperature 32 °F 24 °F -9 °F (1934)
Degree Days  
Heating Degree Days 32    
Moisture  
Dew Point 32 °F    
Average Humidity 93    
Maximum Humidity 100    
Minimum Humidity 87    
Precipitation  
Precipitation 0.01 in - - ()
Sea Level Pressure  
Sea Level Pressure 29.63 in    
Wind  
Wind Speed 11 mph (NW)    
Max Wind Speed 17 mph    
Max Gust Speed 20 mph    
Visibility 6 miles    
Events Snow    
Averages and records for this station are not official NWS values.
T = Trace of Precipitation, MM = Missing Value Source: NWS Daily Summary

Daily Weather History Graph

Daily Weather History Graph

Search for Another Location

Airport or City:

Trip Planner

Search our weather history database for the weather conditions in past years. The results will help you decide how hot, cold, wet, or windy it might be!

Date:

Astronomy

Feb. 27, 2013 Rise Set
Actual Time 6:31 AM CST 5:43 PM CST
Civil Twilight 6:03 AM CST 6:11 PM CST
Nautical Twilight 5:31 AM CST 6:43 PM CST
Astronomical Twilight 5:00 AM CST 7:14 PM CST
Moon 8:06 PM CST (2/27) 7:05 AM CST (2/27)
Length of Visible Light 12h 07m
Length of Day
11h 12m
Waning Gibbous, 96% of the Moon is Illuminated
Feb 27
Waning Gibbous
Mar 4
Last Quarter
Mar 11
New
Mar 19
First Quarter
Mar 27
Full

Hourly Weather History & Observations

Time (CST) Temp. Windchill Dew Point Humidity Pressure Visibility Wind Dir Wind Speed Gust Speed Precip Events Conditions
12:15 AM 33.8 °F 27.7 °F 33.8 °F 100% 29.53 in 3.0 mi NNW 6.9 mph - N/A   Overcast
12:35 AM 33.8 °F 27.7 °F 33.8 °F 100% 29.54 in 5.0 mi NNW 6.9 mph - N/A   Overcast
12:55 AM 33.8 °F 26.4 °F 33.8 °F 100% 29.53 in 3.0 mi NNW 9.2 mph - N/A   Overcast
1:15 AM 33.8 °F 27.0 °F 33.8 °F 100% 29.53 in 5.0 mi NNW 8.1 mph - N/A   Overcast
1:35 AM 33.8 °F 27.7 °F 33.8 °F 100% 29.53 in 4.0 mi NW 6.9 mph - N/A   Overcast
1:55 AM 33.8 °F 27.7 °F 33.8 °F 100% 29.54 in 4.0 mi NW 6.9 mph - N/A   Overcast
2:15 AM 33.8 °F 27.0 °F 33.8 °F 100% 29.54 in 5.0 mi NW 8.1 mph - N/A   Overcast
2:35 AM 33.8 °F 26.4 °F 33.8 °F 100% 29.54 in 5.0 mi NW 9.2 mph - N/A   Overcast
2:55 AM 33.8 °F 26.4 °F 33.8 °F 100% 29.54 in 7.0 mi NW 9.2 mph - N/A   Overcast
3:15 AM 33.8 °F 26.4 °F 33.8 °F 100% 29.54 in 7.0 mi NW 9.2 mph - N/A   Overcast
3:35 AM 33.8 °F 26.4 °F 33.8 °F 100% 29.54 in 7.0 mi NW 9.2 mph - N/A   Overcast
3:55 AM 33.8 °F 25.8 °F 33.8 °F 100% 29.55 in 7.0 mi WNW 10.4 mph - N/A   Overcast
4:15 AM 33.8 °F 25.8 °F 33.8 °F 100% 29.56 in 10.0 mi WNW 10.4 mph - N/A   Overcast
4:35 AM 33.8 °F 25.3 °F 33.8 °F 100% 29.56 in 10.0 mi NW 11.5 mph - N/A   Overcast
4:55 AM 33.8 °F 25.8 °F 33.8 °F 100% 29.56 in 10.0 mi NW 10.4 mph - N/A   Overcast
5:15 AM 33.8 °F 24.8 °F 33.8 °F 100% 29.56 in 10.0 mi NW 12.7 mph - N/A   Overcast
5:35 AM 33.8 °F 25.3 °F 32.0 °F 93% 29.56 in 10.0 mi NW 11.5 mph - N/A   Overcast
5:55 AM 33.8 °F 26.4 °F 32.0 °F 93% 29.57 in 7.0 mi NW 9.2 mph - N/A   Overcast
6:15 AM 33.8 °F 25.3 °F 32.0 °F 93% 29.57 in 7.0 mi NW 11.5 mph - N/A   Overcast
6:35 AM 33.8 °F 25.3 °F 32.0 °F 93% 29.57 in 5.0 mi NW 11.5 mph - N/A   Overcast
6:55 AM 33.8 °F 25.3 °F 32.0 °F 93% 29.58 in 5.0 mi NW 11.5 mph - N/A   Overcast
7:15 AM 33.8 °F 25.8 °F 32.0 °F 93% 29.59 in 3.0 mi NW 10.4 mph - N/A   Overcast
7:35 AM 33.8 °F 25.8 °F 32.0 °F 93% 29.60 in 3.0 mi NW 10.4 mph - N/A   Overcast
7:55 AM 33.8 °F 25.3 °F 32.0 °F 93% 29.60 in 2.0 mi NW 11.5 mph - N/A   Overcast
8:15 AM 33.8 °F 25.8 °F 32.0 °F 93% 29.61 in 2.5 mi NW 10.4 mph - N/A   Overcast
8:35 AM 33.8 °F 25.3 °F 30.2 °F 87% 29.61 in 4.0 mi NW 11.5 mph - N/A Snow Light Snow
8:55 AM 32.0 °F 23.6 °F 30.2 °F 93% 29.61 in 4.0 mi NW 10.4 mph - N/A Snow Light Snow
9:15 AM 32.0 °F 23.6 °F 30.2 °F 93% 29.61 in 3.0 mi NW 10.4 mph - N/A Snow Light Snow
9:35 AM 32.0 °F 23.0 °F 30.2 °F 93% 29.61 in 3.0 mi NW 11.5 mph - N/A Snow Light Snow
9:55 AM 32.0 °F 22.5 °F 30.2 °F 93% 29.61 in 4.0 mi NW 12.7 mph - N/A Snow Light Snow
10:15 AM 32.0 °F 23.6 °F 30.2 °F 93% 29.62 in 5.0 mi NW 10.4 mph - N/A Snow Light Snow
10:35 AM 32.0 °F 23.6 °F 30.2 °F 93% 29.62 in 5.0 mi NW 10.4 mph - N/A Snow Light Snow
10:55 AM 33.8 °F 25.3 °F 30.2 °F 87% 29.62 in 4.0 mi WNW 11.5 mph - 0.01 in Snow Light Snow
11:15 AM 32.0 °F 23.0 °F 30.2 °F 93% 29.62 in 3.0 mi WNW 11.5 mph - N/A Snow Light Snow
11:35 AM 33.8 °F 24.8 °F 30.2 °F 87% 29.62 in 3.0 mi WNW 12.7 mph - N/A Snow Light Snow
11:55 AM 33.8 °F 25.3 °F 30.2 °F 87% 29.62 in 4.0 mi WNW 11.5 mph - N/A Snow Light Snow
12:15 PM 33.8 °F 24.3 °F 30.2 °F 87% 29.62 in 3.0 mi WNW 13.8 mph - N/A Snow Light Snow
12:35 PM 33.8 °F 24.8 °F 30.2 °F 87% 29.62 in 3.0 mi WNW 12.7 mph - N/A Snow Light Snow
12:55 PM 33.8 °F 24.3 °F 30.2 °F 87% 29.62 in 4.0 mi WNW 13.8 mph - N/A Snow Light Snow
1:15 PM 33.8 °F 24.3 °F 30.2 °F 87% 29.62 in 7.0 mi WNW 13.8 mph - N/A Snow Light Snow
1:35 PM 33.8 °F 23.9 °F 30.2 °F 87% 29.62 in 7.0 mi West 15.0 mph - N/A Snow Light Snow
1:55 PM 33.8 °F 23.9 °F 30.2 °F 87% 29.63 in 4.0 mi West 15.0 mph - N/A Snow Light Snow
2:15 PM 33.8 °F 23.9 °F 30.2 °F 87% 29.63 in 3.0 mi West 15.0 mph - N/A Snow Light Snow
2:35 PM 33.8 °F 23.9 °F 30.2 °F 87% 29.64 in 3.0 mi West 15.0 mph - N/A Snow Light Snow
2:55 PM 33.8 °F 23.9 °F 30.2 °F 87% 29.64 in 3.0 mi WNW 15.0 mph - N/A Snow Light Snow
3:15 PM 33.8 °F 23.9 °F 32.0 °F 93% 29.65 in 5.0 mi WNW 15.0 mph - N/A Snow Light Snow
3:35 PM 33.8 °F 24.3 °F 32.0 °F 93% 29.66 in 7.0 mi West 13.8 mph - N/A Snow Light Snow
3:55 PM 33.8 °F 24.8 °F 32.0 °F 93% 29.66 in 10.0 mi WNW 12.7 mph - N/A Snow Light Snow
4:15 PM 33.8 °F 23.9 °F 30.2 °F 87% 29.66 in 10.0 mi WNW 15.0 mph - N/A   Overcast
4:35 PM 33.8 °F 24.3 °F 30.2 °F 87% 29.67 in 10.0 mi WNW 13.8 mph - N/A   Overcast
4:55 PM 33.8 °F 23.5 °F 30.2 °F 87% 29.67 in 10.0 mi WNW 16.1 mph - N/A   Overcast
5:15 PM 33.8 °F 23.2 °F 30.2 °F 87% 29.68 in 5.0 mi WNW 17.3 mph - N/A   Overcast
5:35 PM 33.8 °F 23.9 °F 32.0 °F 93% 29.68 in 10.0 mi WNW 15.0 mph - N/A   Overcast
5:55 PM 33.8 °F 24.3 °F 32.0 °F 93% 29.69 in 10.0 mi WNW 13.8 mph - N/A   Overcast
6:15 PM 33.8 °F 23.9 °F 32.0 °F 93% 29.70 in 10.0 mi WNW 15.0 mph - N/A   Overcast
6:35 PM 33.8 °F 23.5 °F 32.0 °F 93% 29.70 in 3.0 mi WNW 16.1 mph - N/A Snow Light Snow
6:55 PM 33.8 °F 23.9 °F 32.0 °F 93% 29.71 in 4.0 mi WNW 15.0 mph - N/A Snow Light Snow
7:15 PM 33.8 °F 23.9 °F 32.0 °F 93% 29.71 in 3.0 mi WNW 15.0 mph - N/A Snow Light Snow
7:35 PM 33.8 °F 23.9 °F 32.0 °F 93% 29.71 in 7.0 mi WNW 15.0 mph - N/A   Overcast
7:55 PM 33.8 °F 23.9 °F 32.0 °F 93% 29.72 in 7.0 mi WNW 15.0 mph - N/A   Overcast
8:15 PM 33.8 °F 23.9 °F 32.0 °F 93% 29.72 in 3.0 mi WNW 15.0 mph - N/A   Overcast
8:35 PM 33.8 °F 23.9 °F 32.0 °F 93% 29.72 in 7.0 mi WNW 15.0 mph - N/A   Overcast
8:55 PM 33.8 °F 24.8 °F 32.0 °F 93% 29.73 in 5.0 mi WNW 12.7 mph - N/A Snow Light Snow
9:15 PM 33.8 °F 24.3 °F 32.0 °F 93% 29.73 in 3.0 mi WNW 13.8 mph - N/A Snow Light Snow
9:35 PM 33.8 °F 24.8 °F 33.8 °F 100% 29.73 in 4.0 mi NW 12.7 mph 17.3 mph N/A Snow Light Snow
9:55 PM 33.8 °F 25.3 °F 33.8 °F 100% 29.73 in 3.0 mi NW 11.5 mph - N/A Snow Light Snow
10:15 PM 33.8 °F 24.8 °F 33.8 °F 100% 29.73 in 4.0 mi NW 12.7 mph 19.6 mph N/A Snow Light Snow
10:35 PM 33.8 °F 25.3 °F 32.0 °F 93% 29.73 in 5.0 mi WNW 11.5 mph - N/A Snow Light Snow
10:55 PM 33.8 °F 25.3 °F 32.0 °F 93% 29.74 in 5.0 mi NW 11.5 mph - N/A Snow Light Snow
11:15 PM 33.8 °F 25.8 °F 32.0 °F 93% 29.74 in 7.0 mi NW 10.4 mph - N/A Snow Light Snow
11:35 PM 33.8 °F 24.8 °F 32.0 °F 93% 29.74 in 5.0 mi WNW 12.7 mph - N/A Snow Light Snow
11:55 PM 33.8 °F 25.3 °F 32.0 °F 93% 29.74 in 5.0 mi NW 11.5 mph - N/A   Overcast